Location: *
(49.5667°N, 1.3667°W)
Time: 03:15:06
(UTC+00:00)

Cosmos 1371 Rocket - Pass Details

Date: 20 September 2019
Orbit: 753 x 790 km, 74.0° (Epoch: 22 October)

Event Time Altitude Azimuth Distance (km) Brightness Sun altitude
Rises 19:19:33 0° 186° (S) 3,244 7.1 -12.2°
Reaches altitude 10° 19:21:57 10° 182° (S) 2,326 6.3 -12.5°
Maximum altitude 19:27:05 53° 106° (ESE) 966 4.1 -13.3°
Drops below altitude 10° 19:32:17 10° 32° (NNE) 2,361 6.4 -14.1°
Sets 19:34:44 0° 27° (NNE) 3,296 7.2 -14.5°
